Lacey, Washington, United States (98503)
Lat: 47.03N, Lon: 122.82W
Wx Zone: WAZ504
Local Info
Past Weather Observations for Today

NOTE: This archive is for the closest National Weather Service station to Lacey. Information may differ from the station used for current weather conditions.

Click here for Long-term Archive

Time Weather Temperature Dewpoint Humidity Pressure Winds Precip Visibility
17:54
Partly Cloudy
55°F / 13°C 52°F / 11°C 88% 29.77 in
(1008 mb)
SSE 4.6 mph
(SSE 7 kph)
- 10SM
16:54
Mostly Cloudy
57°F / 14°C 52°F / 11°C 82% 29.77 in
(1008 mb)
S 10.4 mph
(S 17 kph)
- 10SM
15:54
Partly Cloudy
61°F / 16°C 54°F / 12°C 77% 29.77 in
(1008 mb)
S 8.1 mph
(S 13 kph)
0.00 in
(0.00 mm)
10SM
14:54
Mostly Cloudy
63°F / 17°C 54°F / 12°C 73% 29.77 in
(1008 mb)
S 6.9 mph
(S 11 kph)
- 10SM
13:54
Overcast
61°F / 16°C 55°F / 13°C 83% 29.74 in
(1007 mb)
SSE 4.6 mph
(SSE 7 kph)
0.01 in
(0.25 mm)
10SM
12:54
Mostly Cloudy
61°F / 16°C 55°F / 13°C 83% 29.74 in
(1007 mb)
W 5.8 mph
(W 9 kph)
- 10SM
11:54
Overcast
61°F / 16°C 55°F / 13°C 83% 29.77 in
(1008 mb)
SW 5.8 mph
(SW 9 kph)
0.01 in
(0.25 mm)
10SM
10:54
Overcast
61°F / 16°C 55°F / 13°C 83% 29.77 in
(1008 mb)
SSW 4.6 mph
(SSW 7 kph)
- 10SM
09:54
Mostly Cloudy
59°F / 15°C 55°F / 13°C 88% 29.77 in
(1008 mb)
Variable 4.6 mph
(Variable 7 kph)
- 10SM
08:54
Mostly Cloudy
57°F / 14°C 55°F / 13°C 94% 29.74 in
(1007 mb)
SW 5.8 mph
(SW 9 kph)
- 10SM
07:54
Partly Cloudy
55°F / 13°C 55°F / 13°C 100% 29.74 in
(1007 mb)
S 3.5 mph
(S 6 kph)
- 9SM
06:54
Partly Cloudy
57°F / 14°C 55°F / 13°C 94% 29.74 in
(1007 mb)
SW 5.8 mph
(SW 9 kph)
0.00 in
(0.00 mm)
10SM
05:54
Overcast
Light Rain
55°F / 13°C 55°F / 13°C 100% 29.71 in
(1006 mb)
SW 4.6 mph
(SW 7 kph)
0.00 in
(0.00 mm)
10SM
04:54
Overcast
57°F / 14°C 55°F / 13°C 94% 29.71 in
(1006 mb)
SW 6.9 mph
(SW 11 kph)
0.05 in
(1.27 mm)
10SM
04:42
Overcast
Light Rain
57°F / 14°C 55°F / 13°C 94% 29.71 in
(1006 mb)
SW 10.4 mph
(SW 17 kph)
0.04 in
(1.02 mm)
5SM
04:34
Overcast
Rain
57°F / 14°C 55°F / 13°C 94% 29.71 in
(1006 mb)
SW 6.9 mph
(SW 11 kph)
0.04 in
(1.02 mm)
2 1/2SM
04:06
Overcast
57°F / 14°C 55°F / 13°C 94% 29.71 in
(1006 mb)
Calm - 10SM
03:54
Overcast
57°F / 14°C 55°F / 13°C 94% 29.71 in
(1006 mb)
SW 3.5 mph
(SW 6 kph)
- 10SM
02:54
Overcast
57°F / 14°C 55°F / 13°C 94% 29.68 in
(1005 mb)
Calm 0.02 in
(0.51 mm)
10SM
01:54
Overcast
Light Rain
57°F / 14°C 55°F / 13°C 94% 29.71 in
(1006 mb)
SSW 3.5 mph
(SSW 6 kph)
0.02 in
(0.51 mm)
8SM
00:54
Overcast
Light Rain
57°F / 14°C 55°F / 13°C 94% 29.71 in
(1006 mb)
SSE 3.5 mph
(SSE 6 kph)
0.08 in
(2.03 mm)
10SM
Time Weather Temperature Dewpoint Humidity Pressure Winds Precip Visibility


Weather for websites

WeatherForYou.com, LLC is not responsible for any damages or problems caused by this service. Current weather conditions are obtained from the closest station including government and personal stations which may have varying degrees of accuracy. Weather forecasts are derived from the NOAA NDFD. Like all things, this site belongs to Jesus Christ... He just trusts me to maintain it. If you have any questions or comments email webmaster@weatherforyou.com

Copyright © 2014, WeatherForYou.com LLC. All rights reserved.